Weather History for KTQH - April, 2013

Change the Weather History Date:

Monday, April 1, 2013

  Actual Average (KMKO) Record (KMKO)
Temperature  
Mean Temperature 52 °F -  
Max Temperature 68 °F 66 °F 84 °F (2012)
Min Temperature 35 °F 44 °F 33 °F (2001)
Degree Days  
Heating Degree Days 14    
Growing Degree Days 2 (Base 50)    
Moisture  
Dew Point 41 °F    
Average Humidity 73    
Maximum Humidity 100    
Minimum Humidity 40    
Precipitation  
Precipitation 0.00 in - - ()
Sea Level Pressure  
Sea Level Pressure 30.08 in    
Wind  
Wind Speed 3 mph (NNE)    
Max Wind Speed 13 mph    
Max Gust Speed 22 mph    
Visibility 10 miles    
Events      
Averages and records for this station are not official NWS values.
T = Trace of Precipitation, MM = Missing Value Source: NWS Daily Summary

Daily Weather History Graph

Daily Weather History Graph

Search for Another Location

Airport or City:

Trip Planner

Search our weather history database for the weather conditions in past years. The results will help you decide how hot, cold, wet, or windy it might be!

Date:

Astronomy

Apr. 01, 2013 Rise Set
Actual Time 7:05 AM CDT 7:42 PM CDT
Civil Twilight 6:40 AM CDT 8:07 PM CDT
Nautical Twilight 6:09 AM CDT 8:38 PM CDT
Astronomical Twilight 5:38 AM CDT 9:09 PM CDT
Moon 12:43 AM CDT (4/1) 11:01 AM CDT (4/1)
Length of Visible Light 13h 27m
Length of Day
12h 36m
Waning Gibbous, 67% of the Moon is Illuminated
Apr 1
Waning Gibbous
Apr 2
Last Quarter
Apr 10
New
Apr 18
First Quarter
Apr 25
Full

Hourly Weather History & Observations

Time (CDT) Temp. Windchill Dew Point Humidity Pressure Visibility Wind Dir Wind Speed Gust Speed Precip Events Conditions
12:15 AM 44.6 °F - 41.0 °F 87% 30.00 in 10.0 mi Calm Calm - N/A   Clear
12:35 AM 42.8 °F - 41.0 °F 93% 30.00 in 10.0 mi Calm Calm - N/A   Clear
12:55 AM 42.8 °F - 41.0 °F 93% 30.00 in 10.0 mi Calm Calm - N/A   Clear
1:15 AM 42.8 °F - 39.2 °F 87% 30.00 in 10.0 mi Calm Calm - N/A   Clear
1:35 AM 42.8 °F - 41.0 °F 93% 30.00 in 10.0 mi Calm Calm - N/A   Clear
1:55 AM 42.8 °F - 39.2 °F 87% 30.00 in 10.0 mi Calm Calm - N/A   Clear
2:15 AM 41.0 °F - 39.2 °F 93% 30.00 in 10.0 mi Calm Calm - N/A   Clear
2:35 AM 41.0 °F - 39.2 °F 93% 30.00 in 10.0 mi Calm Calm - N/A   Clear
2:55 AM 41.0 °F - 37.4 °F 87% 30.00 in 10.0 mi Calm Calm - N/A   Clear
3:15 AM 41.0 °F - 37.4 °F 87% 30.00 in 10.0 mi Calm Calm - N/A   Clear
3:35 AM 41.0 °F - 37.4 °F 87% 30.00 in 10.0 mi Calm Calm - N/A   Clear
3:55 AM 39.2 °F - 37.4 °F 93% 30.00 in 10.0 mi Calm Calm - N/A   Clear
4:15 AM 39.2 °F - 37.4 °F 93% 30.01 in 10.0 mi Calm Calm - N/A   Clear
4:35 AM 39.2 °F - 39.2 °F 100% 30.01 in 10.0 mi Calm Calm - N/A   Clear
4:55 AM 37.4 °F - 37.4 °F 100% 30.02 in 10.0 mi Calm Calm - N/A   Clear
5:15 AM 39.2 °F - 37.4 °F 93% 30.03 in 10.0 mi Calm Calm - N/A   Clear
5:35 AM 39.2 °F - 37.4 °F 93% 30.03 in 10.0 mi Calm Calm - N/A   Clear
5:55 AM 37.4 °F - 37.4 °F 100% 30.04 in 10.0 mi Calm Calm - N/A   Clear
6:15 AM 37.4 °F - 37.4 °F 100% 30.05 in 10.0 mi Calm Calm - N/A   Clear
6:35 AM 37.4 °F - 37.4 °F 100% 30.06 in 10.0 mi Calm Calm - N/A   Clear
6:55 AM 37.4 °F - 35.6 °F 93% 30.06 in - Calm Calm - N/A   Unknown
7:15 AM 37.4 °F - 37.4 °F 100% 30.08 in 10.0 mi Calm Calm - N/A   Clear
7:35 AM 35.6 °F - 35.6 °F 100% 30.09 in 10.0 mi Calm Calm - N/A   Clear
7:55 AM 37.4 °F - 37.4 °F 100% 30.09 in 10.0 mi Calm Calm - N/A   Clear
8:15 AM 42.8 °F - 42.8 °F 100% 30.09 in 10.0 mi Calm Calm - N/A   Clear
8:35 AM 46.4 °F - 42.8 °F 87% 30.08 in 10.0 mi Calm Calm - N/A   Clear
8:55 AM 50.0 °F - 42.8 °F 76% 30.08 in 10.0 mi Calm Calm - N/A   Clear
9:15 AM 53.6 °F - 44.6 °F 72% 30.09 in 10.0 mi Calm Calm - N/A   Clear
9:35 AM 55.4 °F - 44.6 °F 67% 30.10 in 10.0 mi Calm Calm - N/A   Clear
9:55 AM 59.0 °F - 44.6 °F 59% 30.11 in 10.0 mi NE 6.9 mph - N/A   Clear
10:15 AM 59.0 °F - 44.6 °F 59% 30.12 in 10.0 mi NE 6.9 mph - N/A   Clear
10:35 AM 59.0 °F - 44.6 °F 59% 30.12 in 10.0 mi NNE 6.9 mph - N/A   Clear
10:55 AM 60.8 °F - 44.6 °F 55% 30.12 in 10.0 mi North 4.6 mph - N/A   Clear
11:15 AM 60.8 °F - 46.4 °F 59% 30.12 in 10.0 mi North 6.9 mph - N/A   Clear
11:35 AM 60.8 °F - 46.4 °F 59% 30.13 in 10.0 mi North 8.1 mph - N/A   Clear
11:55 AM 60.8 °F - 44.6 °F 55% 30.14 in 10.0 mi North 6.9 mph - N/A   Clear
12:15 PM 62.6 °F - 44.6 °F 52% 30.13 in 10.0 mi North 6.9 mph - N/A   Clear
12:35 PM 62.6 °F - 44.6 °F 52% 30.13 in 10.0 mi NNE 8.1 mph - N/A   Clear
12:55 PM 64.4 °F - 44.6 °F 49% 30.12 in 10.0 mi NW 6.9 mph - N/A   Clear
1:15 PM 64.4 °F - 44.6 °F 49% 30.12 in 10.0 mi North 5.8 mph - N/A   Clear
1:35 PM 64.4 °F - 46.4 °F 52% 30.11 in 10.0 mi North 6.9 mph - N/A   Clear
1:55 PM 66.2 °F - 44.6 °F 46% 30.12 in 10.0 mi Calm Calm - N/A   Clear
2:15 PM 66.2 °F - 42.8 °F 43% 30.12 in 10.0 mi North 10.4 mph - N/A   Clear
2:35 PM 68.0 °F - 44.6 °F 43% 30.11 in 10.0 mi NNW 5.8 mph - N/A   Clear
2:55 PM 68.0 °F - 42.8 °F 40% 30.11 in 10.0 mi North 9.2 mph - N/A   Clear
3:15 PM 66.2 °F - 44.6 °F 46% 30.10 in 10.0 mi North 10.4 mph 16.1 mph N/A   Clear
3:35 PM 66.2 °F - 42.8 °F 43% 30.10 in 10.0 mi NNE 9.2 mph - N/A   Clear
3:55 PM 62.6 °F - 42.8 °F 48% 30.11 in 10.0 mi North 10.4 mph 16.1 mph N/A   Clear
4:15 PM 60.8 °F - 42.8 °F 52% 30.10 in 10.0 mi NNE 12.7 mph - N/A   Clear
4:35 PM 60.8 °F - 42.8 °F 52% 30.10 in 10.0 mi North 12.7 mph 18.4 mph N/A   Clear
4:55 PM 60.8 °F - 42.8 °F 52% 30.10 in 10.0 mi NNE 12.7 mph 19.6 mph N/A   Clear
5:15 PM 62.6 °F - 44.6 °F 52% 30.10 in 10.0 mi North 11.5 mph 18.4 mph N/A   Clear
5:35 PM 59.0 °F - 42.8 °F 55% 30.11 in 10.0 mi NNE 12.7 mph 20.7 mph N/A   Clear
5:55 PM 55.4 °F - 41.0 °F 58% 30.11 in 10.0 mi NE 12.7 mph 20.7 mph N/A   Clear
6:15 PM 53.6 °F - 41.0 °F 62% 30.11 in 10.0 mi NNE 11.5 mph 18.4 mph N/A   Clear
6:35 PM 51.8 °F - 41.0 °F 67% 30.09 in 10.0 mi NE 12.7 mph 21.9 mph N/A   Clear
6:55 PM 51.8 °F - 41.0 °F 67% 30.09 in 10.0 mi NNE 10.4 mph - N/A   Clear
7:15 PM 51.8 °F - 41.0 °F 67% 30.09 in 10.0 mi NNE 9.2 mph - N/A   Clear
7:35 PM 50.0 °F - 41.0 °F 71% 30.10 in 10.0 mi NNE 8.1 mph - N/A   Clear
7:55 PM 50.0 °F - 41.0 °F 71% 30.09 in 10.0 mi NNE 8.1 mph - N/A   Clear
8:15 PM 50.0 °F - 41.0 °F 71% 30.10 in 10.0 mi NNE 6.9 mph 17.3 mph N/A   Clear
8:35 PM 50.0 °F - 41.0 °F 71% 30.11 in 10.0 mi NE 6.9 mph - N/A   Clear
8:55 PM 48.2 °F - 41.0 °F 76% 30.13 in 10.0 mi North 6.9 mph - N/A   Clear
9:15 PM 46.4 °F 43.5 °F 41.0 °F 81% 30.14 in 10.0 mi North 5.8 mph 9.2 mph N/A   Scattered Clouds
9:35 PM 46.4 °F 40.7 °F 41.0 °F 81% 30.12 in 10.0 mi NE 12.7 mph 17.3 mph N/A   Scattered Clouds
9:55 PM 46.4 °F 42.9 °F 41.0 °F 81% 30.13 in 10.0 mi NNE 6.9 mph - N/A   Clear
10:15 PM 46.4 °F 43.5 °F 41.0 °F 81% 30.14 in 10.0 mi NNE 5.8 mph - N/A   Clear
10:35 PM 46.4 °F 44.3 °F 39.2 °F 76% 30.15 in 10.0 mi NNE 4.6 mph - N/A   Scattered Clouds
10:55 PM 44.6 °F 39.7 °F 39.2 °F 81% 30.15 in 10.0 mi NNE 9.2 mph - N/A   Scattered Clouds
11:15 PM 44.6 °F 39.7 °F 37.4 °F 76% 30.14 in 10.0 mi NE 9.2 mph 16.1 mph N/A   Clear
11:35 PM 44.6 °F 39.2 °F 37.4 °F 76% 30.14 in 10.0 mi NE 10.4 mph 16.1 mph N/A   Scattered Clouds
11:55 PM 44.6 °F 39.2 °F 37.4 °F 76% 30.15 in 10.0 mi NE 10.4 mph - N/A   Scattered Clouds